QPF
0.00 0.00 0.00 0.00 0.00 0.00 0.00 0.00 0.00 0.00 0.00 0.00 0.00 0.00 0.00 0.00 0.00 0.00 0.00 0.00 0.00 0.00 0.00 0.00 0.00 0.00 0.00 0.00 0.00 0.00 0.00 0.00 0.00 0.00 0.00 0.00 0.00 0.00 0.00 0.00 0.00 0.00 0.00 0.00 0.00 0.00 0.00 0.00 0.00
0.00 0.00 0.00 0.00 0.00 0.00 0.00 0.00 0.00 0.00 0.00 0.00 0.00 0.00 0.00 0.00 0.00 0.00 0.00 0.00 0.00 0.00 0.00 0.00 0.00 0.00 0.00 0.00 0.00 0.00 0.00 0.00 0.00 0.00 0.00 0.00 0.00 0.00 0.00 0.00 0.00 0.00 0.00 0.00 0.00 0.00 0.00 0.00 0.00
0.00 0.00 0.00 0.00 0.00 0.00 0.00 0.00 0.00 0.00 0.00 0.00 0.00 0.00 0.00 0.00 0.00 0.00 0.00 0.00 0.00 0.00 0.00 0.00 0.00 0.00 0.00 0.00 0.00 0.00 0.00 0.00 0.00 0.00 0.00 0.00 0.00 0.00 0.00 0.00 0.00 0.00 0.00 0.00 0.00 0.00 0.00 0.00 0.00
0.00 0.00 0.00 0.00 0.00 0.00 0.00 0.00 0.00 0.00 0.00 0.00 0.00 0.00 0.00 0.00 0.00 0.00 0.00 0.00 0.00 0.00 0.00 0.00 0.00 0.00 0.00 0.00 0.00 0.00 0.00 0.00 0.00 0.00 0.00 0.00 0.00 0.00 0.00 0.00 0.00 0.00 0.00 0.00 0.00 0.00 0.00 0.00 0.00
0.00 0.00 0.00 0.00 0.00 0.00 0.00 0.00 0.00 0.00 0.00 0.00 0.00 0.00 0.00 0.00 0.00 0.00 0.00 0.00 0.00 0.00 0.00 0.00 0.00 0.00 0.00 0.00 0.00 0.00 0.00 0.00 0.00 0.00 0.00 0.00 0.00 0.00 0.00 0.00 0.00 0.00 0.00 0.00 0.00 0.00 0.00 0.00 0.00
0.00 0.00 0.00 0.00 0.00 0.00 0.00 0.00 0.00 0.00 0.00 0.00 0.00 0.00 0.00 0.00 0.00 0.00 0.00 0.00 0.00 0.00 0.00 0.00 0.00 0.00 0.00 0.00 0.00 0.00 0.00 0.00 0.00 0.00 0.00 0.00 0.00 0.00 0.00 0.00 0.00 0.00 0.00 0.00 0.00 0.00 0.00 0.00 0.00
0.00 0.00 0.00 0.00 0.00 0.00 0.00 0.00 0.00 0.00 0.00 0.00 0.00 0.00 0.00 0.00 0.00 0.00 0.00 0.00 0.00 0.00 0.00 0.00 0.00 0.00 0.00 0.00 0.00 0.00 0.00 0.00 0.00 0.00 0.00 0.00 0.00 0.00 0.00 0.00 0.00 0.00 0.00 0.00 0.00 0.00 0.00 0.00 0.00
0.00 0.00 0.00 0.00 0.00 0.00 0.00 0.00 0.00 0.00 0.00 0.00 0.00 0.00 0.00 0.00 0.00 0.00 0.00 0.00 0.00 0.00 0.00 0.00 0.00 0.00 0.00 0.00 0.00 0.00 0.00 0.00 0.00 0.00 0.00 0.00 0.00 0.00 0.00 0.00 0.00 0.00 0.00 0.00 0.00 0.00 0.00 0.00 0.00
0.00 0.00 0.00 0.00 0.00 0.00 0.00 0.00 0.00 0.00 0.00 0.00 0.00 0.00 0.00 0.00 0.00 0.00 0.00 0.00 0.00 0.00 0.00 0.00 0.00 0.00 0.00 0.00 0.00 0.00 0.00 0.00 0.00 0.00 0.00 0.00 0.00 0.00 0.00 0.00 0.00 0.00 0.00 0.00 0.00 0.00 0.00 0.00 0.00
0.00 0.00 0.00 0.00 0.00 0.00 0.00 0.00 0.00 0.00 0.00 0.00 0.00 0.00 0.00 0.00 0.00 0.00 0.00 0.00 0.00 0.00 0.00 0.00 0.00 0.00 0.00 0.00 0.00 0.00 0.00 0.00 0.00 0.00 0.00 0.00 0.00 0.00 0.00 0.00 0.00 0.00 0.00 0.00 0.00 0.00 0.00 0.00 0.00
0.00 0.00 0.00 0.00 0.00 0.00 0.00 0.00 0.00 0.00 0.00 0.00 0.00 0.00 0.00 0.00 0.00 0.00 0.00 0.00 0.00 0.00 0.00 0.00 0.00 0.00 0.00 0.00 0.00 0.00 0.00 0.00 0.00 0.00 0.00 0.00 0.00 0.00 0.00 0.00 0.00 0.00 0.00 0.00 0.00 0.00 0.00 0.00 0.00
0.00 0.00 0.00 0.00 0.00 0.00 0.00 0.00 0.00 0.00 0.00 0.00 0.00 0.00 0.00 0.00 0.00 0.00 0.00 0.00 0.00 0.00 0.00 0.00 0.00 0.00 0.00 0.00 0.00 0.00 0.00 0.00 0.00 0.00 0.00 0.00 0.00 0.00 0.00 0.00 0.00 0.00 0.00 0.00 0.00 0.00 0.00 0.00 0.00
0.00 0.00 0.00 0.00 0.00 0.00 0.00 0.00 0.00 0.00 0.00 0.00 0.00 0.00 0.00 0.00 0.00 0.00 0.00 0.00 0.00 0.00 0.00 0.00 0.00 0.00 0.00 0.00 0.00 0.00 0.00 0.00 0.00 0.00 0.00 0.00 0.00 0.00 0.00 0.00 0.00 0.00 0.00 0.00 0.00 0.00 0.00 0.00 0.00
0.00 0.00 0.00 0.00 0.00 0.00 0.00 0.00 0.00 0.00 0.00 0.00 0.00 0.00 0.00 0.00 0.00 0.00 0.00 0.00 0.00 0.00 0.00 0.00 0.00 0.00 0.00 0.00 0.00 0.00 0.00 0.00 0.00 0.00 0.00 0.00 0.00 0.00 0.00 0.00 0.00 0.00 0.00 0.00 0.00 0.00 0.00 0.00 0.00
0.00 0.00 0.00 0.00 0.00 0.00 0.00 0.00 0.00 0.00 0.00 0.00 0.00 0.00 0.00 0.00 0.00 0.00 0.00 0.00 0.00 0.00 0.00 0.00 0.00 0.00 0.00 0.00 0.00 0.00 0.00 0.00 0.00 0.00 0.00 0.00 0.00 0.00 0.00 0.00 0.00 0.00 0.00 0.00 0.00 0.00 0.00 0.00 0.00
0.00 0.00 0.00 0.00 0.00 0.00 0.00 0.00 0.00 0.00 0.00 0.00 0.00 0.00 0.00 0.00 0.00 0.00 0.00 0.00 0.00 0.00 0.00 0.00 0.00 0.00 0.00 0.00 0.00 0.00 0.00 0.00 0.00 0.00 0.00 0.00 0.00 0.00 0.00 0.00 0.00 0.00 0.00 0.00 0.00 0.00 0.00 0.00 0.00
0.00 0.00 0.00 0.00 0.00 0.00 0.00 0.00 0.00 0.00 0.00 0.00 0.00 0.00 0.00 0.00 0.00 0.00 0.00 0.00 0.00 0.00 0.00 0.00 0.00 0.00 0.00 0.00 0.00 0.00 0.00 0.00 0.00 0.00 0.00 0.00 0.00 0.00 0.00 0.00 0.00 0.00 0.00 0.00 0.00 0.00 0.00 0.00 0.00
0.00 0.00 0.00 0.00 0.00 0.00 0.00 0.00 0.00 0.00 0.00 0.00 0.00 0.00 0.00 0.00 0.00 0.00 0.00 0.00 0.00 0.00 0.00 0.00 0.00 0.00 0.00 0.00 0.00 0.00 0.00 0.00 0.00 0.00 0.00 0.00 0.00 0.00 0.00 0.00 0.00 0.00 0.00 0.00 0.00 0.00 0.00 0.00 0.00
0.00 0.00 0.00 0.00 0.00 0.00 0.00 0.00 0.00 0.00 0.00 0.00 0.00 0.00 0.00 0.00 0.00 0.00 0.00 0.00 0.00 0.00 0.00 0.00 0.00 0.00 0.00 0.00 0.00 0.00 0.00 0.00 0.00 0.00 0.00 0.00 0.00 0.00 0.00 0.00 0.00 0.00 0.00 0.00 0.00 0.00 0.00 0.00 0.00
0.00 0.00 0.00 0.00 0.00 0.00 0.00 0.00 0.00 0.00 0.00 0.00 0.00 0.00 0.00 0.00 0.00 0.00 0.00 0.00 0.00 0.00 0.00 0.00 0.00 0.00 0.00 0.00 0.00 0.00 0.00 0.00 0.00 0.00 0.00 0.00 0.00 0.00 0.00 0.00 0.00 0.00 0.00 0.00 0.00 0.00 0.00 0.00 0.00
0.00 0.00 0.00 0.00 0.00 0.00 0.00 0.00 0.00 0.00 0.00 0.00 0.00 0.00 0.00 0.00 0.00 0.00 0.00 0.00 0.00 0.00 0.00 0.00 0.00 0.00 0.00 0.00 0.00 0.00 0.00 0.00 0.00 0.00 0.00 0.00 0.00 0.00 0.00 0.00 0.00 0.00 0.00 0.00 0.00 0.00 0.00 0.00 0.00
0.00 0.00 0.00 0.00 0.00 0.00 0.00 0.00 0.00 0.00 0.00 0.00 0.00 0.00 0.00 0.00 0.00 0.00 0.00 0.00 0.00 0.00 0.00 0.00 0.00 0.00 0.00 0.00 0.00 0.00 0.00 0.00 0.00 0.00 0.00 0.00 0.00 0.00 0.00 0.00 0.00 0.00 0.00 0.00 0.00 0.00 0.00 0.00 0.00
0.00 0.00 0.00 0.00 0.00 0.00 0.00 0.00 0.00 0.00 0.00 0.00 0.00 0.00 0.00 0.00 0.00 0.00 0.00 0.00 0.00 0.00 0.00 0.00 0.00 0.00 0.00 0.00 0.00 0.00 0.00 0.00 0.00 0.00 0.00 0.00 0.00 0.00 0.00 0.00 0.00 0.00 0.00 0.00 0.00 0.00 0.00 0.00 0.00
0.00 0.00 0.00 0.00 0.00 0.00 0.00 0.00 0.00 0.00 0.00 0.00 0.00 0.00 0.00 0.00 0.00 0.00 0.00 0.00 0.00 0.00 0.00 0.00 0.00 0.00 0.00 0.00 0.00 0.00 0.00 0.00 0.00 0.00 0.00 0.00 0.00 0.00 0.00 0.00 0.00 0.00 0.00 0.00 0.00 0.00 0.00 0.00 0.00
0.00 0.00 0.00 0.00 0.00 0.00 0.00 0.00 0.00 0.00 0.00 0.00 0.00 0.00 0.00 0.00 0.00 0.00 0.00 0.00 0.00 0.00 0.00 0.00 0.00 0.00 0.00 0.00 0.00 0.00 0.00 0.00 0.00 0.00 0.00 0.00 0.00 0.00 0.00 0.00 0.00 0.00 0.00 0.00 0.00 0.00 0.00 0.00 0.00
0.00 0.00 0.00 0.00 0.00 0.00 0.00 0.00 0.00 0.00 0.00 0.00 0.00 0.00 0.00 0.00 0.00 0.00 0.00 0.00 0.00 0.00 0.00 0.00 0.00 0.00 0.00 0.00 0.00 0.00 0.00 0.00 0.00 0.00 0.00 0.00 0.00 0.00 0.00 0.00 0.00 0.00 0.00 0.00 0.00 0.00 0.00 0.00 0.00
0.00 0.00 0.00 0.00 0.00 0.00 0.00 0.00 0.00 0.00 0.00 0.00 0.00 0.00 0.00 0.00 0.00 0.00 0.00 0.00 0.00 0.00 0.00 0.00 0.00 0.00 0.00 0.00 0.00 0.00 0.00 0.00 0.00 0.00 0.00 0.00 0.00 0.00 0.00 0.00 0.00 0.00 0.00 0.00 0.00 0.00 0.00 0.00 0.00
0.00 0.00 0.00 0.01 0.02 0.01 0.00 0.00 0.00 0.00 0.00 0.00 0.00 0.00 0.00 0.00 0.00 0.00 0.00 0.00 0.00 0.00 0.00 0.00 0.00 0.00 0.00 0.00 0.00 0.00 0.00 0.00 0.00 0.00 0.00 0.00 0.00 0.00 0.00 0.00 0.00 0.00 0.00 0.01 0.01 0.00 0.00 0.00 0.00
0.00 0.00 0.01 0.03 0.03 0.02 0.00 0.00 0.00 0.00 0.00 0.00 0.00 0.00 0.00 0.00 0.00 0.00 0.00 0.00 0.00 0.00 0.00 0.00 0.00 0.00 0.00 0.00 0.00 0.00 0.00 0.00 0.00 0.00 0.00 0.00 0.00 0.00 0.01 0.01 0.00 0.00 0.00 0.01 0.00 0.00 0.00 0.00 0.00
0.00 0.00 0.00 0.00 0.01 0.01 0.00 0.00 0.00 0.00 0.00 0.00 0.00 0.00 0.00 0.00 0.00 0.00 0.00 0.00 0.00 0.00 0.00 0.00 0.00 0.00 0.00 0.00 0.00 0.00 0.00 0.00 0.00 0.00 0.00 0.00 0.00 0.01 0.01 0.01 0.01 0.00 0.00 0.00 0.00 0.00 0.00 0.00 0.00
MSLP
1009.34 1009.17 1009.12 1009.41 1010.58 1010.95 1010.34 1008.95 1007.52 1006.40 1005.39 1004.34 1003.84 1004.06 1002.81 1001.97 1001.96 1002.44 1001.23 1001.33 1002.30 1003.24 1004.34 1005.09 1005.13 1005.71 1006.30 1006.85 1007.06 1007.52 1007.97 1008.40 1008.90 1009.52 1009.98 1010.17 1010.41 1010.73 1011.03 1011.32 1011.49 1011.59 1011.79 1011.98 1012.26 1012.36 1012.54 1012.66 1012.89
1009.09 1009.23 1009.31 1010.02 1010.97 1010.79 1009.22 1008.06 1007.17 1006.12 1005.36 1003.99 1002.92 1001.69 1001.40 1000.61 1000.89 1001.48 1001.71 1001.75 1001.79 1003.02 1003.94 1004.35 1004.98 1005.39 1006.04 1006.70 1007.00 1007.34 1007.85 1008.49 1008.78 1009.45 1010.05 1010.36 1010.60 1010.74 1010.85 1011.18 1011.53 1011.73 1011.91 1012.17 1012.33 1012.38 1012.52 1012.76 1012.90
1008.82 1009.51 1009.74 1010.45 1010.63 1009.43 1008.46 1006.96 1006.56 1005.45 1004.54 1003.92 1002.85 1001.58 1000.62 999.81 999.99 1000.14 1000.33 1001.66 1002.27 1002.95 1003.81 1003.93 1004.68 1005.28 1006.01 1006.49 1006.92 1007.00 1007.58 1008.01 1008.62 1009.07 1009.81 1010.26 1010.52 1010.80 1010.93 1011.04 1011.28 1011.73 1011.95 1012.27 1012.47 1012.62 1012.67 1012.89 1013.01
1009.32 1009.38 1010.30 1010.57 1009.74 1007.86 1007.45 1006.34 1005.70 1004.94 1003.76 1003.30 1002.64 1001.71 1000.43 999.03 999.34 999.39 999.98 1001.37 1002.31 1003.53 1003.63 1004.07 1004.51 1005.29 1005.99 1006.36 1006.91 1006.95 1007.43 1007.93 1008.34 1008.82 1009.27 1009.92 1010.24 1010.53 1010.80 1011.04 1011.14 1011.47 1011.85 1012.16 1012.52 1012.67 1012.71 1012.91 1012.98
1009.27 1009.69 1010.27 1010.43 1008.57 1007.16 1006.63 1006.01 1005.34 1004.89 1004.50 1003.70 1002.86 1001.60 1000.55 999.44 999.59 999.59 1000.31 1001.21 1002.03 1003.00 1003.67 1004.06 1004.42 1005.16 1005.84 1006.15 1006.81 1006.92 1007.23 1007.80 1008.15 1008.61 1009.08 1009.61 1010.12 1010.39 1010.60 1010.86 1011.06 1011.41 1011.83 1012.16 1012.53 1012.80 1012.96 1013.01 1012.90
1009.37 1009.89 1010.71 1009.85 1007.50 1006.59 1006.07 1005.55 1004.93 1004.63 1004.19 1003.56 1002.51 1001.45 1000.14 999.73 1000.35 1000.35 1000.33 1000.90 1001.68 1002.41 1002.90 1003.68 1004.43 1004.92 1005.58 1006.12 1006.61 1006.76 1007.00 1007.50 1007.91 1008.36 1008.90 1009.30 1009.75 1010.10 1010.36 1010.67 1010.92 1011.23 1011.60 1011.90 1012.32 1012.73 1013.01 1013.18 1012.98
1009.36 1009.87 1010.03 1009.02 1007.22 1006.43 1005.69 1005.03 1004.70 1004.45 1004.19 1003.35 1002.47 1001.71 1000.82 1000.39 1000.49 1001.44 1002.14 1002.26 1002.76 1003.14 1003.36 1003.73 1004.38 1005.04 1005.59 1006.27 1006.65 1006.68 1006.79 1007.27 1007.57 1007.95 1008.53 1008.97 1009.43 1009.80 1010.12 1010.39 1010.71 1011.02 1011.47 1011.82 1012.10 1012.54 1012.95 1013.21 1013.04
1009.30 1009.71 1009.85 1008.66 1007.23 1006.32 1005.55 1005.20 1004.69 1004.43 1003.86 1003.38 1002.71 1002.55 1001.99 1001.19 1001.19 1001.85 1002.62 1003.23 1003.43 1003.98 1003.96 1004.18 1004.70 1005.28 1005.91 1006.47 1006.79 1007.00 1006.92 1007.05 1007.32 1007.59 1008.12 1008.62 1009.10 1009.52 1009.89 1010.24 1010.55 1010.79 1011.08 1011.48 1011.96 1012.19 1012.72 1013.13 1013.22
1008.82 1009.75 1009.28 1008.13 1007.26 1006.46 1005.56 1005.56 1004.62 1004.28 1004.03 1003.75 1003.39 1003.09 1002.25 1001.59 1001.69 1002.33 1002.90 1003.80 1004.10 1004.33 1004.26 1004.36 1004.88 1005.45 1005.89 1006.42 1006.74 1007.13 1007.37 1007.31 1007.48 1007.64 1007.88 1008.48 1008.95 1009.27 1009.60 1009.90 1010.43 1010.66 1010.81 1011.16 1011.57 1011.85 1012.37 1012.76 1013.07
1009.25 1009.27 1008.60 1007.47 1006.82 1006.44 1005.48 1005.58 1005.25 1004.52 1003.81 1003.66 1003.18 1002.80 1002.39 1002.31 1002.63 1002.87 1002.78 1003.32 1003.89 1004.21 1004.36 1004.31 1004.78 1005.41 1005.90 1006.25 1006.68 1006.97 1007.42 1007.47 1007.54 1007.67 1007.79 1008.26 1008.74 1009.00 1009.36 1009.55 1010.07 1010.43 1010.68 1011.04 1011.25 1011.45 1011.88 1012.37 1012.87
1008.76 1008.52 1008.39 1007.61 1006.81 1006.64 1005.60 1005.36 1005.38 1004.84 1003.76 1004.12 1003.70 1003.12 1002.57 1002.55 1002.70 1003.27 1003.76 1003.63 1002.30 1002.92 1004.17 1004.28 1004.65 1005.24 1005.57 1006.12 1006.61 1006.85 1007.10 1007.45 1007.63 1007.64 1007.82 1008.01 1008.60 1008.94 1009.36 1009.52 1009.78 1010.31 1010.44 1011.01 1011.12 1011.28 1011.74 1012.07 1012.66
1009.08 1008.73 1008.74 1008.03 1006.94 1006.74 1005.98 1005.68 1005.19 1004.85 1003.67 1003.96 1003.82 1003.35 1002.95 1002.76 1002.66 1002.84 1003.17 1003.61 1003.84 1003.48 1003.35 1004.08 1004.49 1004.94 1005.40 1005.91 1006.23 1006.62 1006.87 1007.20 1007.60 1007.56 1007.69 1008.20 1008.60 1008.85 1009.28 1009.39 1009.50 1010.03 1010.36 1010.73 1010.88 1011.05 1011.44 1011.80 1012.23
1009.43 1009.17 1008.75 1008.03 1007.75 1007.31 1006.64 1005.28 1005.37 1003.90 1003.57 1003.88 1003.77 1003.46 1003.25 1003.01 1003.04 1002.47 1002.44 1002.61 1002.99 1003.55 1004.20 1003.49 1004.11 1004.18 1004.79 1005.27 1005.62 1005.90 1006.23 1006.77 1006.87 1007.37 1007.57 1007.96 1008.30 1008.61 1008.90 1009.33 1009.42 1009.75 1010.25 1010.41 1010.92 1010.98 1011.29 1011.67 1011.94
1009.98 1009.68 1009.07 1008.33 1007.93 1007.24 1006.62 1005.47 1005.34 1002.09 1003.92 1003.49 1003.38 1003.27 1003.08 1003.01 1003.01 1002.58 1002.26 1002.08 1002.43 1002.54 1002.47 1004.05 1003.23 1003.85 1004.50 1004.65 1005.08 1005.36 1005.58 1006.05 1006.52 1006.93 1007.10 1007.59 1007.94 1008.34 1008.61 1009.06 1009.21 1009.57 1009.95 1009.78 1010.36 1010.75 1011.02 1011.39 1011.79
1010.16 1010.02 1009.39 1008.73 1007.67 1006.88 1006.41 1005.50 1004.46 1004.03 1003.47 1003.38 1003.27 1003.23 1003.09 1002.85 1002.55 1002.83 1002.61 1002.61 1002.38 1001.94 1002.07 1002.44 1003.42 1003.32 1004.00 1004.15 1004.50 1004.97 1005.29 1005.73 1006.06 1006.20 1006.46 1007.04 1007.54 1008.08 1008.35 1008.68 1008.93 1009.13 1009.49 1009.35 1010.00 1010.68 1010.81 1011.30 1011.62
1010.59 1010.62 1009.98 1008.52 1007.86 1007.06 1006.83 1004.96 1004.63 1004.33 1003.91 1003.09 1003.06 1003.34 1003.00 1002.97 1002.67 1002.44 1002.41 1002.08 1001.95 1001.54 1001.91 1001.88 1002.13 1003.07 1003.21 1003.67 1003.72 1004.41 1004.65 1004.87 1005.38 1005.70 1005.80 1006.38 1006.97 1007.43 1007.84 1008.19 1008.51 1008.72 1009.27 1009.27 1009.68 1010.37 1010.62 1011.17 1011.34
1011.56 1011.55 1010.73 1009.48 1007.99 1007.55 1007.07 1006.28 1005.42 1004.85 1004.81 1004.42 1003.26 1002.91 1003.43 1003.40 1003.30 1002.88 1002.68 1002.00 1001.50 1001.21 1001.29 1001.55 1001.90 1002.24 1002.61 1002.89 1003.38 1003.77 1004.07 1004.29 1004.62 1005.08 1005.45 1005.65 1005.91 1006.61 1007.02 1007.49 1008.11 1008.38 1008.73 1008.87 1009.45 1010.04 1010.20 1011.02 1011.09
1012.05 1011.73 1011.09 1010.18 1009.08 1008.27 1007.49 1006.27 1006.24 1005.62 1005.33 1004.66 1004.29 1003.08 1001.93 1003.03 1003.25 1002.80 1002.49 1002.40 1001.73 1001.15 1000.91 1001.19 1001.73 1001.65 1001.80 1002.01 1002.77 1003.46 1003.72 1003.84 1004.10 1004.39 1004.55 1005.12 1005.51 1005.76 1006.39 1006.82 1007.62 1008.28 1008.40 1008.56 1009.16 1009.56 1009.84 1010.30 1010.47
1011.71 1011.56 1011.13 1010.44 1009.52 1008.91 1007.89 1006.40 1006.14 1005.84 1005.50 1005.23 1004.85 1004.36 1003.80 1002.56 1001.02 1002.17 1001.98 1001.63 1001.94 1001.62 1001.25 1000.68 1001.19 1001.32 1001.85 1001.93 1002.64 1002.98 1003.07 1003.39 1003.74 1003.71 1003.67 1004.10 1004.71 1005.10 1005.54 1006.19 1007.12 1007.48 1007.73 1007.72 1008.51 1009.15 1009.68 1009.98 1010.17
1011.38 1011.40 1011.02 1010.41 1009.95 1009.60 1008.66 1006.78 1006.44 1005.88 1005.38 1005.19 1005.09 1004.70 1004.11 1003.67 1002.50 1000.22 1001.52 1001.75 1001.47 1001.62 1001.67 1001.17 1000.76 1000.44 1000.84 1001.39 1001.65 1001.27 1001.31 1002.07 1002.27 1002.69 1003.06 1003.50 1003.86 1004.32 1004.88 1005.98 1006.50 1006.68 1006.87 1007.59 1008.25 1008.63 1009.20 1009.42 1009.78
1011.15 1011.30 1011.09 1011.00 1010.39 1009.83 1009.25 1006.65 1006.54 1005.80 1005.38 1005.11 1005.00 1004.77 1004.54 1004.16 1003.47 1002.63 1001.85 1001.41 1001.06 1000.71 1001.29 1001.07 1000.50 1000.00 999.57 1000.01 1001.31 1001.82 1001.58 1001.87 1002.27 1002.45 1002.49 1002.60 1003.04 1003.56 1004.46 1005.24 1005.59 1005.89 1006.42 1007.18 1007.61 1008.12 1008.56 1009.14 1009.48
1011.15 1011.01 1011.10 1011.14 1011.19 1011.18 1010.16 1007.03 1006.58 1006.28 1005.79 1005.43 1005.21 1005.05 1004.59 1004.09 1003.66 1003.25 1002.49 1001.49 1000.94 1000.46 1000.09 1000.10 1000.10 999.49 999.08 999.07 1000.07 1000.95 1000.55 1000.81 1000.96 1001.07 1001.48 1002.14 1002.62 1002.91 1003.76 1004.29 1004.87 1005.35 1006.01 1006.54 1006.88 1007.46 1008.01 1008.38 1009.01
1010.93 1010.89 1011.24 1011.50 1011.69 1011.59 1011.05 1010.22 1005.84 1005.92 1005.99 1005.80 1005.30 1005.19 1005.15 1004.83 1004.27 1003.68 1003.04 1001.98 1000.97 1000.07 999.65 999.15 998.97 998.71 998.49 998.56 998.73 999.72 1000.29 1000.65 1000.86 1001.28 1001.67 1002.28 1002.34 1002.66 1003.11 1003.49 1004.50 1004.99 1005.43 1005.80 1006.36 1007.27 1007.71 1007.94 1008.42
1010.65 1011.31 1011.81 1012.05 1012.48 1012.22 1011.02 1010.27 1005.05 1006.02 1005.75 1005.75 1005.63 1005.52 1005.42 1004.88 1003.97 1003.19 1002.52 1001.89 1000.80 1000.06 999.21 998.74 998.40 998.18 998.04 998.04 998.04 998.36 998.97 999.91 1000.73 1001.27 1001.61 1002.15 1002.30 1002.35 1002.69 1003.09 1003.89 1004.18 1004.89 1005.44 1006.13 1006.57 1006.99 1007.68 1007.86
1011.42 1012.29 1013.24 1013.45 1013.39 1012.52 1011.16 1010.58 1006.72 1006.26 1005.85 1005.72 1005.87 1005.63 1005.14 1004.72 1004.24 1003.12 1002.08 1001.47 1000.57 999.75 998.90 998.33 997.93 997.26 997.21 997.21 997.39 997.79 998.07 998.74 999.74 1000.33 1000.76 1001.54 1001.88 1002.04 1002.32 1002.52 1003.26 1003.76 1004.55 1005.03 1005.71 1006.35 1006.67 1007.27 1007.66
1011.79 1012.78 1014.00 1014.08 1013.99 1012.92 1011.57 1009.99 1006.81 1005.94 1005.70 1005.60 1005.71 1005.50 1005.07 1004.73 1004.16 1003.44 1002.23 1001.37 1000.25 999.23 998.25 997.49 997.03 996.49 996.60 996.62 996.63 996.90 997.42 998.05 998.99 999.52 1000.12 1000.55 1000.88 1001.13 1001.65 1001.99 1002.62 1003.24 1004.08 1004.86 1005.46 1006.03 1006.46 1006.89 1007.35
1011.85 1012.62 1013.01 1013.92 1013.93 1013.41 1011.50 1009.15 1007.29 1005.73 1005.68 1005.47 1005.34 1005.21 1004.84 1004.34 1003.60 1002.87 1002.17 1001.01 999.88 998.80 997.67 996.79 995.69 995.35 995.32 995.36 995.95 996.17 996.57 997.36 998.25 998.76 999.61 1000.01 1000.45 1000.78 1001.42 1001.60 1002.44 1002.78 1003.83 1004.48 1005.10 1005.62 1006.36 1006.89 1007.20
1011.47 1012.15 1013.32 1014.44 1014.35 1013.22 1011.14 1009.37 1007.49 1006.20 1005.57 1005.74 1005.22 1004.92 1004.51 1003.94 1003.16 1002.08 1001.32 1000.38 999.15 998.07 996.67 995.44 994.34 993.81 993.90 994.43 995.05 995.29 995.64 996.98 997.59 998.26 999.15 999.61 1000.15 1000.50 1001.06 1001.85 1002.26 1002.64 1003.67 1004.16 1004.84 1005.49 1006.20 1006.81 1007.13
1011.84 1012.33 1013.20 1014.03 1013.96 1013.05 1011.21 1008.53 1006.50 1006.10 1005.86 1005.36 1005.08 1004.77 1004.64 1003.69 1002.65 1001.52 1000.40 999.76 998.61 997.16 995.93 994.02 992.64 992.38 992.76 993.40 994.25 994.34 995.55 996.40 996.98 997.82 998.55 999.09 999.66 999.96 1000.84 1001.38 1002.00 1002.69 1003.45 1004.02 1004.80 1005.53 1006.10 1006.66 1007.06
1011.61 1012.18 1012.88 1013.62 1013.41 1012.56 1011.13 1007.35 1006.06 1005.70 1005.25 1004.99 1004.77 1004.60 1004.04 1003.21 1002.38 1001.12 1000.00 999.06 997.47 995.90 994.50 992.85 991.99 991.81 991.88 992.47 993.34 994.30 995.10 995.89 996.74 997.52 998.01 998.66 999.10 999.66 1000.30 1001.06 1001.99 1002.61 1003.19 1003.86 1004.70 1005.44 1005.89 1006.51 1006.90
Thickness
5754 5761 5766 5761 5733 5726 5727 5753 5777 5780 5790 5806 5806 5800 5808 5825 5819 5795 5864 5869 5866 5861 5852 5845 5845 5839 5833 5827 5824 5819 5815 5810 5805 5798 5792 5790 5787 5782 5777 5772 5769 5768 5764 5761 5756 5753 5750 5747 5743
5749 5752 5752 5736 5711 5713 5735 5761 5770 5777 5787 5802 5809 5819 5821 5821 5844 5843 5851 5865 5869 5861 5854 5852 5845 5841 5835 5828 5824 5820 5815 5808 5806 5798 5790 5786 5783 5781 5779 5774 5768 5765 5762 5757 5753 5750 5746 5742 5739
5747 5741 5729 5714 5701 5721 5740 5770 5770 5782 5795 5796 5799 5823 5826 5834 5852 5858 5870 5864 5863 5860 5854 5854 5847 5841 5835 5830 5824 5823 5817 5813 5806 5801 5791 5785 5782 5778 5776 5775 5771 5763 5759 5754 5749 5745 5742 5737 5734
5730 5729 5717 5696 5711 5749 5757 5768 5773 5780 5798 5802 5806 5798 5831 5858 5856 5870 5874 5865 5858 5851 5853 5849 5846 5839 5833 5830 5824 5823 5819 5813 5809 5803 5797 5789 5785 5781 5776 5773 5770 5765 5759 5754 5747 5743 5739 5735 5732
5720 5713 5695 5691 5716 5749 5761 5770 5775 5773 5777 5786 5797 5796 5814 5849 5861 5867 5866 5861 5855 5851 5849 5847 5844 5838 5834 5831 5825 5823 5821 5814 5810 5804 5798 5792 5785 5781 5777 5773 5768 5762 5756 5750 5744 5738 5735 5732 5731
5700 5699 5678 5691 5728 5746 5755 5765 5770 5773 5777 5786 5794 5799 5820 5849 5847 5855 5862 5859 5857 5853 5855 5849 5842 5838 5834 5829 5826 5825 5822 5817 5812 5806 5799 5794 5787 5782 5777 5772 5767 5761 5755 5750 5744 5738 5732 5728 5728
5691 5682 5682 5698 5722 5727 5745 5763 5761 5769 5770 5780 5797 5789 5813 5835 5845 5841 5840 5843 5843 5844 5846 5846 5840 5834 5831 5826 5823 5824 5823 5818 5815 5809 5802 5796 5789 5784 5778 5773 5768 5763 5755 5750 5745 5738 5731 5726 5725
5690 5680 5676 5696 5716 5720 5739 5749 5760 5765 5769 5791 5796 5776 5785 5818 5835 5834 5834 5831 5832 5831 5836 5836 5834 5828 5824 5821 5819 5818 5820 5819 5816 5812 5804 5798 5792 5786 5779 5773 5768 5764 5758 5752 5744 5740 5732 5725 5721
5695 5662 5664 5690 5703 5715 5732 5731 5754 5769 5769 5775 5781 5785 5801 5821 5826 5822 5821 5818 5820 5823 5828 5830 5828 5824 5820 5818 5816 5814 5813 5815 5812 5809 5805 5797 5792 5787 5781 5777 5769 5764 5760 5754 5747 5742 5734 5726 5720
5673 5657 5672 5706 5710 5703 5721 5725 5733 5748 5761 5766 5772 5786 5799 5807 5808 5809 5815 5812 5813 5817 5821 5825 5824 5820 5817 5815 5813 5813 5811 5812 5810 5808 5805 5799 5793 5789 5783 5780 5771 5764 5759 5753 5748 5744 5736 5727 5720
5675 5667 5683 5695 5703 5704 5717 5723 5730 5735 5750 5756 5755 5770 5785 5792 5797 5800 5799 5806 5822 5822 5815 5820 5818 5816 5816 5813 5811 5811 5811 5808 5807 5806 5804 5800 5793 5788 5782 5779 5773 5764 5760 5751 5747 5743 5735 5728 5718
5657 5671 5673 5684 5694 5695 5704 5718 5722 5727 5754 5759 5763 5771 5778 5781 5786 5793 5796 5799 5801 5810 5817 5816 5815 5814 5813 5811 5811 5810 5810 5807 5805 5804 5803 5797 5792 5788 5782 5779 5774 5765 5758 5752 5748 5743 5735 5728 5719
5653 5660 5666 5675 5676 5682 5694 5708 5708 5730 5755 5753 5758 5764 5767 5772 5777 5789 5797 5801 5803 5803 5802 5814 5813 5815 5812 5810 5811 5812 5811 5807 5806 5802 5801 5797 5792 5787 5782 5776 5772 5765 5757 5752 5745 5741 5734 5726 5719
5643 5648 5654 5665 5668 5675 5680 5696 5700 5747 5739 5746 5750 5754 5762 5765 5771 5781 5788 5796 5798 5804 5809 5802 5814 5811 5808 5810 5811 5811 5812 5809 5805 5802 5800 5796 5791 5787 5782 5775 5770 5764 5756 5755 5746 5739 5732 5725 5717
5638 5634 5640 5651 5662 5668 5680 5676 5696 5720 5726 5727 5737 5745 5754 5762 5770 5772 5778 5782 5791 5801 5807 5808 5804 5810 5806 5808 5810 5808 5809 5805 5804 5804 5801 5796 5791 5786 5781 5775 5769 5765 5757 5756 5745 5734 5730 5722 5715
5623 5617 5613 5640 5650 5664 5664 5670 5696 5706 5704 5714 5725 5726 5740 5748 5759 5767 5772 5780 5785 5795 5798 5806 5808 5803 5806 5806 5810 5805 5806 5806 5804 5802 5801 5796 5791 5787 5781 5775 5769 5763 5755 5752 5743 5732 5727 5718 5713
5599 5598 5608 5621 5648 5650 5656 5651 5680 5693 5691 5693 5712 5723 5724 5731 5743 5754 5761 5770 5779 5787 5793 5797 5800 5801 5802 5804 5804 5806 5806 5805 5805 5801 5799 5797 5796 5789 5784 5777 5769 5761 5756 5751 5740 5730 5726 5715 5711
5592 5593 5599 5605 5626 5635 5637 5653 5662 5677 5680 5685 5691 5712 5729 5727 5732 5743 5754 5758 5769 5775 5784 5788 5790 5796 5799 5802 5799 5797 5799 5801 5802 5800 5800 5795 5792 5790 5783 5778 5767 5756 5753 5748 5737 5729 5724 5717 5712
5595 5593 5592 5604 5617 5617 5625 5644 5657 5665 5668 5671 5680 5691 5701 5719 5745 5738 5746 5755 5753 5761 5768 5778 5781 5787 5787 5789 5786 5788 5793 5796 5795 5798 5801 5797 5793 5791 5785 5777 5764 5759 5753 5749 5737 5729 5721 5715 5710
5588 5585 5587 5596 5607 5606 5612 5634 5646 5655 5660 5663 5668 5677 5688 5696 5711 5743 5734 5740 5749 5749 5753 5763 5769 5782 5784 5783 5786 5794 5800 5797 5798 5801 5799 5797 5794 5790 5784 5771 5764 5760 5755 5744 5735 5728 5719 5714 5707
5578 5576 5579 5579 5592 5600 5598 5624 5630 5644 5650 5658 5661 5666 5672 5679 5691 5706 5721 5730 5738 5748 5745 5756 5764 5773 5783 5785 5779 5780 5787 5789 5790 5793 5795 5794 5792 5788 5778 5769 5765 5761 5753 5741 5735 5727 5719 5710 5704
5563 5577 5577 5575 5569 5560 5589 5591 5618 5626 5629 5637 5643 5646 5657 5670 5678 5688 5702 5716 5726 5738 5749 5750 5758 5768 5775 5781 5777 5774 5783 5786 5793 5796 5794 5787 5786 5785 5776 5771 5764 5757 5749 5742 5735 5727 5719 5711 5702
5561 5571 5568 5566 5558 5553 5564 5548 5616 5619 5615 5617 5625 5631 5637 5645 5657 5670 5682 5699 5715 5730 5740 5750 5756 5763 5770 5774 5779 5778 5774 5781 5784 5784 5783 5777 5779 5778 5774 5769 5758 5752 5748 5742 5734 5722 5715 5709 5702
5567 5558 5550 5544 5534 5524 5548 5542 5615 5601 5604 5604 5609 5613 5618 5629 5646 5661 5675 5687 5703 5716 5730 5739 5748 5756 5764 5771 5775 5778 5780 5779 5773 5771 5770 5767 5768 5769 5768 5763 5756 5753 5746 5739 5729 5722 5716 5706 5702
5544 5525 5503 5507 5513 5523 5544 5529 5587 5587 5591 5588 5584 5592 5602 5613 5624 5643 5660 5672 5689 5703 5717 5727 5737 5750 5760 5767 5770 5773 5778 5780 5771 5769 5768 5760 5758 5761 5760 5760 5752 5749 5741 5735 5726 5717 5712 5704 5698
5538 5523 5482 5495 5507 5513 5533 5518 5560 5577 5570 5572 5573 5577 5588 5596 5607 5621 5640 5656 5677 5693 5710 5723 5732 5745 5753 5760 5767 5774 5777 5775 5769 5767 5764 5760 5760 5760 5758 5755 5749 5745 5737 5729 5721 5714 5708 5701 5695
5528 5518 5519 5501 5500 5470 5497 5529 5546 5570 5562 5561 5564 5569 5571 5579 5593 5610 5624 5642 5661 5678 5699 5717 5733 5746 5752 5758 5762 5768 5775 5769 5766 5764 5757 5755 5753 5753 5748 5749 5741 5741 5731 5724 5717 5711 5702 5696 5690
5526 5524 5503 5454 5458 5476 5502 5511 5529 5550 5559 5553 5556 5556 5560 5566 5576 5598 5613 5627 5646 5669 5693 5714 5735 5749 5755 5758 5761 5767 5772 5765 5761 5759 5750 5748 5747 5746 5743 5735 5736 5732 5724 5720 5713 5707 5698 5690 5684
5515 5505 5501 5474 5483 5491 5492 5513 5539 5546 5547 5549 5549 5550 5550 5558 5565 5582 5599 5609 5632 5660 5684 5712 5738 5752 5756 5757 5757 5765 5762 5759 5757 5752 5747 5745 5743 5742 5733 5732 5730 5724 5718 5713 5707 5699 5691 5684 5678
5516 5506 5494 5459 5487 5473 5482 5519 5546 5541 5542 5544 5542 5545 5545 5549 5555 5567 5577 5591 5626 5657 5681 5707 5727 5742 5753 5756 5757 5755 5756 5753 5748 5744 5744 5742 5738 5733 5730 5729 5722 5717 5714 5708 5701 5692 5686 5678 5673